This demonstration page uses our WeatherBlox Daily Observations layout. Learn more.

Left ArrowRight Arrow

53.62937, 11.41316

Hourly Observations for June 29, 2017

Temp ( °F °C ) Dew Point ( °F °C ) Humidity (%) Winds ( mph kmh ) Pressure ( in mb ) Visibility ( mi km ) Precip ( " mm )
6:20 am 06:20 Partly Cloudy 61 16 61 16 100 100 VRB 1 2 29.38 995 4 6 N/A
6:50 am 06:50 Mostly Cloudy with Fog 63 17 63 17 100 100 NW 3 6 29.35 994 1 1 N/A
7:20 am 07:20 Mostly Cloudy with Fog 63 17 63 17 100 100 WNW 3 6 29.35 994 0 1 N/A
7:50 am 07:50 Cloudy 63 17 63 17 100 100 W 5 7 29.35 994 4 7 N/A
8:20 am 08:20 Cloudy 64 18 64 18 100 100 WNW 6 9 29.35 994 5 8 N/A
8:50 am 08:50 Cloudy 64 18 64 18 100 100 WNW 6 9 29.35 994 6 9 N/A
9:20 am 09:20 Cloudy 64 18 63 17 94 94 NW 7 11 29.35 994 30 48 N/A
9:50 am 09:50 Cloudy 64 18 63 17 94 94 NNW 6 9 29.35 994 30 48 N/A
10:20 am 10:20 Cloudy 66 19 63 17 88 88 NNW 8 13 29.35 994 30 48 N/A
10:50 am 10:50 Cloudy 66 19 63 17 88 88 NW 8 13 29.35 994 30 48 N/A
11:20 am 11:20 Cloudy 68 20 63 17 83 83 NNW 7 11 29.35 994 30 48 N/A
11:50 am 11:50 Cloudy 68 20 63 17 83 83 NW 6 9 29.35 994 30 48 N/A
12:20 pm 12:20 Cloudy 68 20 64 18 88 88 WNW 8 13 29.35 994 30 48 N/A
12:50 pm 12:50 Cloudy with Light Showers 66 19 64 18 94 94 NW 6 9 29.35 994 30 48 N/A
1:20 pm 13:20 Cloudy 66 19 63 17 88 88 NW 9 15 29.35 994 30 48 N/A
1:50 pm 13:50 Cloudy 68 20 64 18 88 88 WNW 7 11 29.35 994 30 48 N/A
2:20 pm 14:20 Cloudy with Light Showers 68 20 63 17 83 83 NW 7 11 29.35 994 30 48 N/A
2:50 pm 14:50 Mostly Cloudy with Light Showers 64 18 63 17 94 94 NW 9 15 29.35 994 5 8 N/A
3:20 pm 15:20 Mostly Cloudy with Light Showers 64 18 64 18 100 100 WNW 7 11 29.35 994 4 6 N/A
3:50 pm 15:50 Cloudy with Light Rain 64 18 63 17 94 94 NW 7 11 29.35 994 4 6 N/A
4:20 pm 16:20 Cloudy with Light Rain 63 17 63 17 100 100 WNW 7 11 29.35 994 4 6 N/A
4:50 pm 16:50 Cloudy with Light Rain 63 17 63 17 100 100 W 8 13 29.32 993 30 48 N/A
5:20 pm 17:20 Cloudy with Drizzle 63 17 63 17 100 100 WNW 8 13 29.35 994 30 48 N/A
5:50 pm 17:50 Cloudy 63 17 61 16 94 94 WNW 9 15 29.35 994 30 48 N/A

Powered by AerisWeather